[[{"header":{"parameterUnit":"m.s-1","parameterCategory":1,"la1":30.2991,"la2":30.254,"lo1":-89.0895,"lo2":-89.0444,"dy":0.0017,"dx":0.0017,"nx":28,"ny":28,"refTime":"2024-03-04T09:00:00:Z","depth":0,"parameterNumber":2,"parameterNumberName":"U-component_of_WINDS"},"data":[0,0,0,0,0,0,0,0,0,0,0,0,0,0,0,0,0,0,0,0,0,0,0,0,0,0,0,0,0,0,0,0,0,0,0,0,0,0,0,0,0,0,0,0,0,0,0,0,0,0,0,0,0,0,0,0,0,0,0.1039,0.1039,0,0.0999,0.0999,0.0998,0.0962,0.0962,0.0961,0.0961,0.0923,0.0922,0.0921,0,0,0,0,0,0,0,0,0,0,0,0,0,0.1088,0.1087,0.1039,0.1039,0.1038,0.0999,0.0999,0.0998,0.0962,0.0962,0.0961,0.096,0.0923,0.0922,0.0921,0,0,0,0,0,0,0,0,0,0,0,0,0,0.1059,0.1087,0.1039,0.1015,0.1013,0.0999,0.0999,0.0998,0.0962,0.0962,0.0961,0.096,0.0923,0.0922,0.0921,0.0929,0,0,0.0918,0.0918,0,0,0,0,0,0,0,0,0.1061,0.1058,0.1019,0.1017,0.1014,0.0985,0.1002,0.0975,0.0962,0.0982,0.0961,0.096,0.0944,0.0941,0.0935,0.0927,0.0925,0.0918,0.0918,0.0917,0.0917,0,0,0,0,0,0,0,0.1063,0.1059,0.1023,0.1019,0.1016,0.1008,0.1003,0.0996,0.0967,0.098,0.0977,0.0973,0.0942,0.0936,0.0934,0.0925,0.0918,0.0918,0.0917,0.0917,0.0923,0.0924,0,0,0,0,0,0,0.1068,0.1061,0.1025,0.1022,0.1036,0.1008,0.1002,0.0995,0.0967,0.0962,0.0973,0.0971,0.0938,0.0935,0.0933,0.0941,0.0917,0.0917,0.0916,0.0922,0.0923,0.0924,0,0,0,0,0,0,0.1069,0.1065,0.1026,0.1041,0.1035,0.1007,0.1,0.0994,0.0988,0.0962,0.0957,0.0972,0.0938,0.0934,0.093,0.094,0.0916,0.0915,0.0921,0.0923,0.0924,0.0958,0,0,0,0,0,0,0.1071,0.1066,0.1068,0.1041,0.1034,0.1024,0.1,0.0994,0.0986,0.0983,0.096,0.0955,0.0937,0.0932,0.0929,0.0938,0.0915,0.0921,0.0922,0.0923,0.0956,0.096,0.0964,0,0,0,0,0,0.1073,0.1079,0.1068,0.1064,0.1036,0.1024,0.102,0.0998,0.0987,0.099,0.0973,0.0956,0.0939,0.0932,0.0929,0.0937,0.092,0.0922,0.0923,0.0954,0.0959,0.0964,0,0,0,0,0,0,0.1108,0.1075,0.1062,0.106,0.1045,0.1018,0.102,0.1004,0.0993,0.099,0.0964,0.0959,0.0959,0.0947,0.094,0.0944,0.0927,0.0928,0.0952,0.0956,0.096,0.0964,0.0914,0,0,0,0,0,0.1115,0.1107,0.1079,0.108,0.1073,0.1048,0.1042,0.1026,0.101,0.1004,0.0987,0.0973,0.0965,0.096,0.095,0.0954,0.0949,0.0958,0.0962,0.0965,0.0967,0.097,0.0974,0.0929,0.0929,0.0929,0,0,0.1131,0.1112,0.1108,0.1087,0.1073,0.1067,0.1043,0.1037,0.1033,0.1003,0.0999,0.0986,0.0969,0.097,0.0969,0.096,0.0978,0.0967,0.097,0.097,0.0972,0.0977,0.098,0.093,0.093,0.093,0,0,0.1156,0.114,0.114,0.1127,0.1107,0.109,0.109,0.1066,0.1056,0.1051,0.1029,0.1024,0.101,0.0999,0.0991,0.1014,0.0999,0.1012,0.1032,0.1036,0.1039,0.1043,0.1053,0.1056,0.1013,0.1013,0.1013,0,0.1178,0.1167,0.1142,0.1138,0.113,0.1102,0.1103,0.1092,0.107,0.1066,0.1055,0.1038,0.1024,0.1023,0.1028,0.1022,0.1023,0.1015,0.1041,0.1044,0.1046,0.1056,0.1059,0.1015,0.1015,0.1015,0.1014,0,0.1196,0.1189,0.1191,0.1171,0.1163,0.1161,0.1137,0.1132,0.1118,0.1103,0.1099,0.1082,0.1069,0.1067,0.1053,0.1064,0.106,0.1045,0.1028,0.1053,0.1061,0.1064,0.1018,0.1017,0.1016,0.1016,0,0,0.1242,0.1209,0.121,0.1201,0.1178,0.1172,0.117,0.1157,0.1155,0.1141,0.114,0.1128,0.1115,0.1107,0.1091,0.1094,0.1115,0.1079,0.1079,0.1089,0.113,0.1142,0.1147,0.1104,0.1105,0.1105,0.1132,0,0.1265,0.1259,0.1237,0.1238,0.1232,0.1206,0.1205,0.1191,0.1177,0.1171,0.1156,0.1149,0.1131,0.1126,0.1128,0.1113,0.1124,0.111,0.1105,0.1105,0.1112,0.1151,0.1163,0.1189,0.1135,0.1135,0.1136,0,0.1291,0.1279,0.1279,0.1257,0.1254,0.1253,0.1241,0.1234,0.1219,0.1209,0.12,0.1182,0.118,0.1163,0.1161,0.1152,0.1149,0.1141,0.1141,0.1142,0.1124,0.1154,0.1197,0.1202,0.114,0.114,0.114,0,0.1328,0.1311,0.131,0.1303,0.1277,0.1277,0.1266,0.125,0.1244,0.1233,0.123,0.1219,0.1214,0.1207,0.1187,0.1176,0.1188,0.1169,0.1181,0.1182,0.1187,0.1187,0.1232,0.1181,0.1181,0.1181,0.1181,0,0.1356,0.1358,0.1326,0.1326,0.1328,0.1303,0.1306,0.1293,0.1279,0.1276,0.1253,0.1251,0.1224,0.122,0.1205,0.1207,0.1204,0.1197,0.1194,0.12,0.1202,0.1199,0.1198,0.1182,0.1182,0.1181,0.1181,0,0.1398,0.1376,0.1374,0.1349,0.1343,0.1346,0.1326,0.1325,0.131,0.1307,0.1305,0.1282,0.1276,0.1255,0.1244,0.1234,0.1242,0.1233,0.1247,0.1245,0.126,0.1259,0.1306,0.1312,0.1256,0.1256,0.1257,0,0.1419,0.142,0.1396,0.1392,0.1383,0.1377,0.1371,0.1347,0.1342,0.1326,0.1327,0.1319,0.1312,0.1304,0.1287,0.1279,0.1271,0.1288,0.127,0.1277,0.1274,0.1275,0.1276,0.1292,0.1293,0.1294,0.1294,0,0.1459,0.1448,0.144,0.143,0.1423,0.1414,0.1403,0.1401,0.1375,0.1371,0.1364,0.1359,0.1347,0.1341,0.133,0.132,0.1304,0.13,0.1303,0.1311,0.132,0.1318,0.126,0.1299,0.1299,0.1298,0.1298,0.1298,0.1492,0.1493,0.1476,0.1469,0.1458,0.1449,0.1448,0.1432,0.1426,0.1415,0.1401,0.1397,0.1383,0.1367,0.1359,0.1356,0.1347,0.135,0.1352,0.1354,0.1358,0.1319,0.1354,0.1353,0.1353,0.1353,0.1353,0,0.1533,0.1521,0.1515,0.15,0.1495,0.1479,0.1466,0.1464,0.146,0.1448,0.1441,0.1435,0.1429,0.1411,0.1403,0.1405,0.1397,0.1404,0.1404,0.1403,0.1366,0.1365,0.141,0.141,0.141,0.141,0.141,0.141,0.1554,0.1554,0.1542,0.1538,0.1527,0.1522,0.1517,0.1509,0.1499,0.1493,0.1488,0.1476,0.1462,0.1453,0.1448,0.1443,0.1442,0.1452,0.1445,0.1411,0.1405,0.14,0.14,0.1451,0.1451,0.1482,0.1483,0.1483]},{"header":{"parameterUnit":"m.s-1","parameterCategory":1,"la1":30.2991,"la2":30.254,"lo1":-89.0895,"lo2":-89.0444,"dy":0.0017,"dx":0.0017,"nx":28,"ny":28,"refTime":"2024-03-04T09:00:00:Z","depth":0,"parameterNumber":3,"parameterNumberName":"V-component_of_WINDS"},"data":[0,0,0,0,0,0,0,0,0,0,0,0,0,0,0,0,0,0,0,0,0,0,0,0,0,0,0,0,0,0,0,0,0,0,0,0,0,0,0,0,0,0,0,0,0,0,0,0,0,0,0,0,0,0,0,0,0,0,0.9453,0.9454,0,0.9509,0.9509,0.951,0.9545,0.9546,0.9546,0.9546,0.9598,0.9599,0.96,0,0,0,0,0,0,0,0,0,0,0,0,0,0.9374,0.9376,0.9453,0.9454,0.9455,0.9509,0.9509,0.951,0.9545,0.9546,0.9546,0.9546,0.9597,0.9599,0.96,0,0,0,0,0,0,0,0,0,0,0,0,0,0.9417,0.9376,0.9453,0.9479,0.9482,0.9508,0.9509,0.951,0.9545,0.9546,0.9546,0.9546,0.9597,0.9599,0.96,0.9604,0,0,0.9606,0.9606,0,0,0,0,0,0,0,0,0.9414,0.942,0.9474,0.9477,0.948,0.9521,0.9501,0.9542,0.9545,0.9521,0.9546,0.9546,0.9571,0.9575,0.9585,0.9607,0.9609,0.9606,0.9607,0.9608,0.9608,0,0,0,0,0,0,0,0.9412,0.9418,0.9475,0.9475,0.9479,0.9486,0.9493,0.9508,0.9543,0.9523,0.9526,0.9532,0.9573,0.9583,0.9586,0.961,0.9606,0.9607,0.9608,0.9609,0.9638,0.9638,0,0,0,0,0,0,0.9405,0.9415,0.9473,0.9477,0.9448,0.9488,0.9495,0.9507,0.9543,0.9549,0.9532,0.9534,0.958,0.9584,0.9588,0.9596,0.9608,0.9609,0.961,0.9639,0.9638,0.9638,0,0,0,0,0,0,0.9403,0.941,0.9471,0.9447,0.9455,0.9489,0.9502,0.9508,0.9518,0.955,0.9556,0.9536,0.958,0.9586,0.9601,0.9598,0.961,0.9612,0.9639,0.9639,0.9638,0.9611,0,0,0,0,0,0,0.9401,0.9409,0.9412,0.9447,0.9456,0.9484,0.9502,0.9509,0.9522,0.9525,0.9555,0.9561,0.9581,0.9598,0.9602,0.9601,0.9613,0.9639,0.9639,0.9638,0.9612,0.961,0.9607,0,0,0,0,0,0.9398,0.94,0.9412,0.9419,0.946,0.9483,0.9489,0.9513,0.9521,0.9524,0.9545,0.956,0.9598,0.9599,0.9604,0.9603,0.964,0.9639,0.9638,0.9613,0.961,0.9608,0,0,0,0,0,0,0.9362,0.9405,0.9418,0.9433,0.9454,0.9489,0.9493,0.9509,0.9528,0.9529,0.9558,0.9564,0.9577,0.9591,0.9592,0.961,0.962,0.9621,0.9599,0.9597,0.9595,0.9591,0.9614,0,0,0,0,0,0.9357,0.9373,0.9409,0.9418,0.9429,0.9459,0.947,0.9487,0.951,0.9519,0.9541,0.9561,0.9578,0.9588,0.9605,0.9615,0.9622,0.9617,0.9614,0.9612,0.9612,0.9619,0.9617,0.9636,0.9636,0.9636,0,0,0.9344,0.937,0.9378,0.9412,0.9431,0.9446,0.9466,0.9481,0.9493,0.9521,0.9537,0.9553,0.9578,0.9591,0.9597,0.9603,0.9609,0.9611,0.961,0.9611,0.9618,0.9616,0.9615,0.9636,0.9636,0.9636,0,0,0.9329,0.935,0.9361,0.938,0.9409,0.9429,0.9432,0.9465,0.9478,0.9495,0.9516,0.953,0.9558,0.9575,0.9587,0.958,0.9595,0.9585,0.9572,0.9579,0.9577,0.9576,0.9574,0.9573,0.9585,0.9585,0.9585,0,0.9309,0.9335,0.9363,0.9378,0.9392,0.942,0.9431,0.9447,0.948,0.9488,0.9495,0.9532,0.9551,0.9568,0.9567,0.9575,0.9579,0.9581,0.9576,0.9575,0.9574,0.9572,0.9571,0.9583,0.9584,0.9584,0.9584,0,0.9309,0.9326,0.9331,0.9364,0.9379,0.9391,0.9421,0.9432,0.9448,0.9468,0.9485,0.9508,0.9531,0.9537,0.9552,0.9556,0.9559,0.957,0.9582,0.957,0.9569,0.9569,0.9581,0.9582,0.9582,0.9583,0,0,0.9272,0.9323,0.9324,0.934,0.9375,0.9388,0.9401,0.9426,0.9435,0.9457,0.9468,0.9492,0.9504,0.9517,0.9535,0.954,0.9534,0.9551,0.9552,0.9547,0.9541,0.9533,0.9531,0.9545,0.9545,0.9545,0.9539,0,0.9262,0.929,0.9317,0.9334,0.9351,0.9379,0.939,0.9413,0.9431,0.9447,0.9467,0.9484,0.9497,0.9506,0.9513,0.9534,0.9533,0.9534,0.9555,0.9555,0.9548,0.9531,0.9522,0.9515,0.9539,0.9539,0.9539,0,0.9255,0.9278,0.9297,0.9332,0.934,0.9351,0.9376,0.9391,0.9416,0.943,0.9446,0.9465,0.948,0.949,0.9511,0.9511,0.9521,0.9532,0.9533,0.9535,0.9546,0.9533,0.9514,0.9513,0.9538,0.9538,0.9538,0,0.9226,0.9262,0.9279,0.9291,0.9332,0.9339,0.9356,0.9382,0.9396,0.9417,0.9426,0.9448,0.946,0.9476,0.95,0.9505,0.9518,0.953,0.9529,0.9528,0.953,0.953,0.9512,0.9536,0.9536,0.9536,0.9537,0,0.9213,0.9224,0.9267,0.9277,0.929,0.9321,0.9332,0.9352,0.9375,0.9389,0.9413,0.9425,0.9457,0.9472,0.9491,0.9506,0.9511,0.9521,0.9526,0.9519,0.9518,0.9526,0.9527,0.9536,0.9536,0.9536,0.9536,0,0.9183,0.9212,0.9233,0.9271,0.928,0.9288,0.932,0.9331,0.9352,0.9369,0.9375,0.9407,0.9427,0.9453,0.948,0.9493,0.9505,0.9512,0.9497,0.95,0.9497,0.9497,0.9484,0.9484,0.9508,0.9508,0.9507,0,0.9172,0.9182,0.9222,0.9234,0.9251,0.927,0.9284,0.9314,0.9328,0.9359,0.9366,0.9388,0.9408,0.9438,0.9462,0.9484,0.9492,0.9486,0.9495,0.9488,0.9492,0.9491,0.9493,0.9484,0.9483,0.9483,0.9483,0,0.915,0.9165,0.9186,0.9212,0.923,0.9251,0.9274,0.9282,0.9317,0.9331,0.9353,0.9368,0.9397,0.9419,0.9443,0.946,0.9477,0.948,0.9481,0.9474,0.9464,0.947,0.9491,0.948,0.948,0.948,0.948,0.948,0.913,0.914,0.9171,0.9193,0.9214,0.9235,0.9248,0.9271,0.929,0.9318,0.9334,0.9355,0.9382,0.9417,0.9433,0.9449,0.9456,0.9457,0.9457,0.9457,0.9455,0.9462,0.9453,0.9454,0.9454,0.9454,0.9454,0,0.911,0.9131,0.9152,0.9184,0.9202,0.9219,0.9245,0.9259,0.9278,0.9302,0.9321,0.9346,0.9368,0.9395,0.9418,0.9426,0.9434,0.9431,0.9431,0.9434,0.9447,0.9445,0.9424,0.9424,0.9424,0.9424,0.9424,0.9424,0.9101,0.912,0.9138,0.9168,0.9189,0.9211,0.9225,0.9244,0.9264,0.9292,0.9311,0.9329,0.9354,0.938,0.94,0.9408,0.9415,0.9409,0.9419,0.943,0.9433,0.9436,0.9433,0.941,0.941,0.9404,0.9404,0.9404]}]]